Meteo pe oră la Bistriţa

Astăzi, 17 Aprilie, Sâmbătă

Timp Temperatura Precipitaţii Vânt Presiune Umiditate
00:00 -1°C° 0 mm 0 m/s 723 mmHg 91%
01:00 -1°C° 0 mm 0 m/s 723 mmHg 91%
02:00 -1°C° 0 mm 0 m/s 723 mmHg 91%
03:00 -1°C° 0 mm 0 m/s 723 mmHg 91%
04:00 -1°C° 0 mm 0 m/s 723 mmHg 91%
05:00 -1°C° 0 mm 0 m/s 723 mmHg 91%
06:00 0°C° 0 mm 0 m/s 723 mmHg 85%
07:00 +2°C° 0 mm 0 m/s 723 mmHg 79%
08:00 +3°C° 0 mm 0 m/s 723 mmHg 73%
09:00 +5°C° 0 mm 0 m/s 723 mmHg 67%
10:00 +8°C° 0 mm 1 m/s 723 mmHg 61%
11:00 +10°C° 0 mm 1 m/s 722 mmHg 56%
12:00 +10°C° 0 mm 1 m/s 722 mmHg 54%
13:00 +11°C° 0 mm 1 m/s 721 mmHg 52%
14:00 +12°C° 0 mm 1 m/s 721 mmHg 50%
15:00 +12°C° 0 mm 1 m/s 721 mmHg 52%
16:00 +12°C° 0 mm 1 m/s 720 mmHg 53%
17:00 +12°C° 0 mm 1 m/s 720 mmHg 55%
18:00 +10°C° 0 mm 1 m/s 720 mmHg 62%
19:00 +8°C° 0 mm 1 m/s 720 mmHg 69%
20:00 +6°C° 0 mm 2 m/s 720 mmHg 77%
21:00 +5°C° 0 mm 2 m/s 720 mmHg 78%
22:00 +5°C° 0 mm 2 m/s 720 mmHg 80%
23:00 +4°C° 0 mm 2 m/s 721 mmHg 82%

Mâine, 18 Aprilie, Duminică

Timp Temperatura Precipitaţii Vânt Presiune Umiditate
00:00 +4°C° 0 mm 2 m/s 721 mmHg 81%
01:00 +4°C° 0 mm 2 m/s 720 mmHg 81%
02:00 +3°C° 0 mm 2 m/s 720 mmHg 81%
03:00 +3°C° 0 mm 2 m/s 720 mmHg 81%
04:00 +3°C° 0 mm 2 m/s 720 mmHg 81%
05:00 +3°C° 0 mm 2 m/s 720 mmHg 81%
06:00 +5°C° 0 mm 1 m/s 720 mmHg 76%
07:00 +7°C° 0 mm 1 m/s 720 mmHg 71%
08:00 +8°C° 0 mm 1 m/s 720 mmHg 66%
09:00 +9°C° 0 mm 1 m/s 720 mmHg 61%
10:00 +11°C° 0 mm 1 m/s 719 mmHg 55%
11:00 +12°C° 0 mm 1 m/s 719 mmHg 50%
12:00 +12°C° 0.1 mm 1 m/s 719 mmHg 56%
13:00 +11°C° 0.1 mm 1 m/s 720 mmHg 63%
14:00 +10°C° 0.1 mm 2 m/s 720 mmHg 69%
15:00 +9°C° 0.3 mm 2 m/s 720 mmHg 77%
16:00 +9°C° 0.3 mm 1 m/s 720 mmHg 84%
17:00 +8°C° 0.3 mm 1 m/s 720 mmHg 92%
18:00 +8°C° 0.3 mm 1 m/s 720 mmHg 93%
19:00 +8°C° 0.3 mm 1 m/s 720 mmHg 95%
20:00 +6°C° 0.3 mm 0 m/s 721 mmHg 96%
21:00 +6°C° 0.2 mm 0 m/s 721 mmHg 96%
22:00 +6°C° 0.2 mm 0 m/s 721 mmHg 96%
23:00 +6°C° 0.2 mm 0 m/s 721 mmHg 96%

Poimâine, 19 Aprilie, Luni

Timp Temperatura Precipitaţii Vânt Presiune Umiditate
00:00 +6°C° 0.1 mm 0 m/s 720 mmHg 96%
01:00 +6°C° 0.1 mm 0 m/s 720 mmHg 95%
02:00 +6°C° 0.1 mm 0 m/s 720 mmHg 95%
03:00 +6°C° 0.1 mm 0 m/s 720 mmHg 94%
04:00 +6°C° 0.1 mm 0 m/s 720 mmHg 94%
05:00 +5°C° 0.1 mm 0 m/s 720 mmHg 93%
06:00 +6°C° 0.1 mm 0 m/s 720 mmHg 91%
07:00 +6°C° 0.1 mm 0 m/s 720 mmHg 89%
08:00 +7°C° 0.1 mm 0 m/s 719 mmHg 87%
09:00 +7°C° 0 mm 0 m/s 719 mmHg 84%
10:00 +8°C° 0 mm 0 m/s 719 mmHg 81%
11:00 +8°C° 0 mm 0 m/s 719 mmHg 78%
12:00 +10°C° 0.1 mm 1 m/s 719 mmHg 76%
13:00 +10°C° 0.1 mm 1 m/s 718 mmHg 75%
14:00 +10°C° 0.1 mm 1 m/s 718 mmHg 73%
15:00 +10°C° 0.1 mm 1 m/s 718 mmHg 75%
16:00 +10°C° 0.1 mm 1 m/s 717 mmHg 77%
17:00 +10°C° 0.1 mm 1 m/s 717 mmHg 79%
18:00 +9°C° 0.1 mm 1 m/s 717 mmHg 82%
19:00 +8°C° 0.1 mm 1 m/s 717 mmHg 85%
20:00 +8°C° 0.1 mm 1 m/s 717 mmHg 89%
21:00 +7°C° 0 mm 1 m/s 716 mmHg 89%
22:00 +7°C° 0 mm 1 m/s 716 mmHg 90%
23:00 +7°C° 0 mm 1 m/s 716 mmHg 91%

20 Aprilie, Marţi

Timp Temperatura Precipitaţii Vânt Presiune Umiditate
00:00 +7°C° 0 mm 1 m/s 716 mmHg 91%
01:00 +7°C° 0 mm 1 m/s 716 mmHg 92%
02:00 +6°C° 0 mm 1 m/s 715 mmHg 92%
03:00 +6°C° 0.1 mm 1 m/s 715 mmHg 92%
04:00 +6°C° 0.1 mm 1 m/s 715 mmHg 93%
05:00 +6°C° 0.1 mm 1 m/s 715 mmHg 94%
06:00 +6°C° 0.2 mm 1 m/s 715 mmHg 94%
07:00 +6°C° 0.2 mm 1 m/s 715 mmHg 94%
08:00 +7°C° 0.2 mm 1 m/s 715 mmHg 94%
09:00 +6°C° 0.2 mm 2 m/s 716 mmHg 91%
10:00 +6°C° 0.2 mm 2 m/s 716 mmHg 89%
11:00 +7°C° 0.2 mm 2 m/s 716 mmHg 86%
12:00 +7°C° 0.2 mm 3 m/s 716 mmHg 86%
13:00 +7°C° 0.2 mm 3 m/s 716 mmHg 86%
14:00 +7°C° 0.2 mm 4 m/s 716 mmHg 85%
15:00 +6°C° 0.2 mm 4 m/s 716 mmHg 87%
16:00 +7°C° 0.2 mm 3 m/s 716 mmHg 88%
17:00 +7°C° 0.2 mm 3 m/s 716 mmHg 90%
18:00 +7°C° 0.2 mm 3 m/s 717 mmHg 91%
19:00 +6°C° 0.2 mm 2 m/s 717 mmHg 93%
20:00 +6°C° 0.2 mm 2 m/s 717 mmHg 95%
21:00 +7°C° 0.1 mm 1 m/s 718 mmHg 95%
22:00 +7°C° 0.1 mm 1 m/s 718 mmHg 95%
23:00 +7°C° 0.1 mm 1 m/s 718 mmHg 94%

21 Aprilie, Miercuri

Timp Temperatura Precipitaţii Vânt Presiune Umiditate
00:00 +6°C° 0.1 mm 1 m/s 718 mmHg 94%
01:00 +6°C° 0.1 mm 1 m/s 718 mmHg 94%
02:00 +6°C° 0.1 mm 1 m/s 718 mmHg 94%
03:00 +6°C° 0.1 mm 1 m/s 719 mmHg 94%
04:00 +6°C° 0.1 mm 1 m/s 719 mmHg 94%
05:00 +5°C° 0.1 mm 1 m/s 719 mmHg 94%
06:00 +6°C° 0 mm 1 m/s 719 mmHg 90%
07:00 +7°C° 0 mm 1 m/s 720 mmHg 87%
08:00 +7°C° 0 mm 1 m/s 720 mmHg 84%
09:00 +7°C° 0.1 mm 2 m/s 720 mmHg 79%
10:00 +8°C° 0.1 mm 2 m/s 721 mmHg 74%
11:00 +9°C° 0.1 mm 3 m/s 721 mmHg 70%
12:00 +9°C° 0.2 mm 3 m/s 721 mmHg 69%
13:00 +10°C° 0.2 mm 3 m/s 721 mmHg 68%
14:00 +10°C° 0.2 mm 3 m/s 721 mmHg 67%
15:00 +10°C° 0.1 mm 3 m/s 721 mmHg 68%
16:00 +10°C° 0.1 mm 2 m/s 721 mmHg 68%
17:00 +10°C° 0.1 mm 2 m/s 722 mmHg 69%
18:00 +10°C° 0 mm 1 m/s 722 mmHg 73%
19:00 +9°C° 0 mm 1 m/s 722 mmHg 76%
20:00 +7°C° 0 mm 0 m/s 723 mmHg 80%
21:00 +6°C° 0 mm 0 m/s 723 mmHg 82%
22:00 +5°C° 0 mm 0 m/s 723 mmHg 83%
23:00 +6°C° 0 mm 1 m/s 723 mmHg 85%

22 Aprilie, Joi

Timp Temperatura Precipitaţii Vânt Presiune Umiditate
00:00 +6°C° 0 mm 1 m/s 723 mmHg 84%
01:00 +7°C° 0 mm 1 m/s 723 mmHg 83%
02:00 +7°C° 0 mm 1 m/s 724 mmHg 82%
03:00 +7°C° 0 mm 1 m/s 724 mmHg 82%
04:00 +7°C° 0 mm 1 m/s 724 mmHg 83%
05:00 +7°C° 0 mm 1 m/s 724 mmHg 83%
06:00 +8°C° 0 mm 1 m/s 724 mmHg 81%
07:00 +8°C° 0 mm 1 m/s 724 mmHg 80%
08:00 +9°C° 0 mm 1 m/s 724 mmHg 78%
09:00 +10°C° 0.1 mm 1 m/s 724 mmHg 74%
10:00 +10°C° 0.1 mm 2 m/s 724 mmHg 70%
11:00 +12°C° 0.1 mm 2 m/s 724 mmHg 65%
12:00 +13°C° 0.5 mm 2 m/s 724 mmHg 65%
13:00 +13°C° 0.5 mm 2 m/s 724 mmHg 65%
14:00 +13°C° 0.5 mm 2 m/s 724 mmHg 64%
15:00 +13°C° 0.6 mm 2 m/s 723 mmHg 66%
16:00 +13°C° 0.6 mm 2 m/s 723 mmHg 67%
17:00 +13°C° 0.6 mm 2 m/s 723 mmHg 69%
18:00 +12°C° 0.4 mm 1 m/s 723 mmHg 74%
19:00 +10°C° 0.4 mm 1 m/s 723 mmHg 80%
20:00 +9°C° 0.4 mm 1 m/s 723 mmHg 85%
21:00 +9°C° 0 mm 1 m/s 723 mmHg 86%
22:00 +8°C° 0 mm 1 m/s 723 mmHg 86%
23:00 +8°C° 0 mm 1 m/s 723 mmHg 87%
Arată mai mult

Formular de consimțământ

Meteoprog și furnizorii noștri de servicii pot stoca și accesa date personale, precum cookies, identificatori de dispozitiv sau alte tehnologii similare pe dispozitivul dumneavoastră și procesa astfel de date pentru a personaliza conținutul și reclamele, dar și pentru a oferi caracteristici de social media și pentru a analiza traficul.

  • Stocarea și/sau accesarea informațiilor pe dispozitivul dumneavoastră

    Cookies, identificatori de dispozitiv sau alte informații pot fi stocate sau accesate pe dispozitiv în scopurile indicate mai sus.

  • Reclame și conținut personalizat, evaluarea reclamelor și a conținutului, informații despre audiențe și dezvoltarea produselor

    Reclamele și conținutul pot fi personalizate pe baza unui profil. Pot fi adăugate date suplimentare pentru a personaliza mai bine reclamele și conținutul. Performanța reclamelor și conținutului poate fi măsurată. Pot fi obținute informații despre utilizatorii care au văzut reclamele și conținutul. Aceste date pot fi utilizate pentru a dezvolta sau îmbunătăți experiența utilizatorilor, sistemele și software-ul.

Dând clic pe ‘Sunt de acord’, permiteți utilizarea cookie-urilor menționate, a identificatorilor de dispozitiv, balizelor web sau altor tehnologii similare. Setările pot fi modificate din browser-ul dispozitivului dumneavoastră.

În anumite scopuri, interesele legitime pot prima asupra consimțământului. Puteți citi mai multe informații în acest sens în Politica privind Confidențialitatea Datelor și Cookie.